Temp
65 65 65 65 64 65 65 65 64 64 64 64 65 64 64 65 65 62 58 66 66 70 68 66 66 64 64 61 61 58 48 45 49 51 54 59 59 62 62 63 64 64 65 66 65
65 64 65 65 64 64 64 64 64 64 64 64 64 64 64 63 59 56 67 70 70 70 64 61 58 61 57 57 57 53 46 49 54 55 54 57 58 59 61 60 62 63 65 66 64
64 64 64 64 64 64 64 64 63 63 64 63 64 64 64 61 54 56 69 69 69 68 65 63 61 59 53 55 54 51 48 52 55 57 58 56 58 60 57 56 61 62 64 65 64
63 63 63 64 64 64 64 64 63 63 63 63 63 63 63 58 42 60 67 68 68 65 63 60 58 52 49 49 54 49 53 54 56 57 56 55 58 57 58 61 64 63 63 62 63
62 62 62 63 63 64 64 63 63 63 63 63 63 63 58 51 52 64 66 66 64 62 60 58 54 52 49 50 52 50 51 54 56 55 54 55 54 56 56 62 62 61 61 61 61
62 62 61 62 62 63 63 63 63 63 63 63 63 62 53 44 61 62 63 63 62 59 57 58 56 56 51 50 50 52 52 52 54 54 54 53 53 54 56 59 60 59 60 60 59
61 61 61 61 62 62 63 63 63 63 63 63 63 59 49 49 60 60 62 60 61 61 56 58 59 55 54 49 53 51 47 50 51 52 53 54 48 50 56 57 57 57 58 59 60
61 61 60 61 61 62 62 62 62 62 63 63 63 55 46 59 59 60 60 59 62 62 61 60 60 56 54 53 51 46 45 39 48 50 52 53 42 53 56 55 55 56 57 57 59
60 60 60 60 60 60 61 61 61 62 63 62 57 54 46 60 54 58 60 57 59 60 60 63 58 52 51 45 41 42 35 38 43 50 49 49 43 52 54 52 53 55 56 57 57
59 59 59 60 60 60 60 60 60 59 57 58 57 49 51 48 54 57 59 60 56 55 54 53 49 44 44 42 33 37 38 40 42 47 46 45 43 49 52 51 52 53 55 56 57
59 59 59 60 60 60 58 52 47 46 48 46 48 48 49 54 57 54 58 57 56 51 44 48 43 41 45 44 44 42 40 39 41 48 44 43 43 46 51 49 49 52 55 58 58
59 59 60 60 60 59 54 47 48 51 41 49 49 50 53 53 47 51 58 50 48 43 44 44 40 46 47 45 43 42 40 39 45 48 44 42 43 49 51 52 54 54 55 56 56
58 59 59 59 59 55 51 49 54 53 41 45 48 48 49 52 45 47 53 49 45 43 45 39 43 48 46 41 39 39 38 38 39 42 43 39 37 42 47 49 51 52 54 53 53
58 58 59 58 52 52 49 54 54 52 34 37 40 45 50 51 43 52 54 50 46 41 45 44 46 43 42 41 42 35 43 42 40 39 35 39 30 40 46 48 50 52 49 49 48
58 58 58 58 48 48 51 54 54 50 18 39 39 51 49 45 44 46 52 49 41 41 42 36 39 40 38 42 45 42 45 41 40 35 34 37 31 35 41 44 48 49 46 43 44
57 57 57 51 49 52 54 53 49 30 18 27 40 41 41 46 43 47 46 49 47 42 38 38 42 42 42 44 45 44 41 40 37 37 30 35 32 32 37 42 45 45 43 42 42
57 57 56 52 47 54 54 47 30 24 29 27 36 41 41 40 42 42 41 39 37 33 33 38 37 40 43 38 41 44 39 28 27 27 27 33 31 38 43 46 47 46 40 40 40
55 56 54 52 53 54 50 36 25 23 22 33 38 39 37 39 42 41 39 37 41 36 32 31 27 39 43 42 38 39 39 29 20 21 26 32 28 36 44 46 47 46 41 39 37
53 49 48 49 54 53 41 29 28 25 32 33 38 34 34 39 37 40 36 37 42 40 34 29 31 37 40 42 46 37 34 41 30 22 26 28 33 41 42 39 37 37 37 35 36
46 45 45 50 53 47 34 31 27 35 36 36 26 32 26 33 32 36 35 39 40 45 44 36 27 34 38 42 42 40 42 32 32 19 16 25 27 33 38 38 36 35 34 34 35
44 37 44 51 50 39 30 30 28 35 38 35 31 29 30 32 33 33 32 36 42 42 46 41 37 32 37 36 36 37 36 37 34 26 23 19 28 37 40 41 37 35 35 35 34
41 31 46 49 34 32 32 32 38 34 35 36 35 34 32 33 31 32 32 36 42 43 38 43 37 30 31 37 40 41 37 37 30 28 30 26 32 40 41 41 39 35 36 35 34
32 34 44 46 28 30 32 32 35 33 34 34 33 35 35 33 28 32 34 41 42 42 38 40 34 28 27 32 37 35 38 41 39 33 31 27 32 37 35 35 36 35 34 34 33
33 29 36 39 38 33 31 30 30 36 34 36 34 36 34 32 34 31 33 39 42 42 46 43 35 30 27 30 33 32 34 38 37 30 32 33 35 35 34 34 33 34 34 33 33
33 30 33 30 32 32 32 30 29 25 33 36 34 35 33 24 30 30 34 36 39 42 42 41 32 34 35 35 33 32 34 36 33 36 32 37 37 43 40 36 35 36 34 32 31
30 30 32 30 37 31 33 29 30 31 31 28 29 33 34 30 33 30 35 35 36 37 36 39 32 34 30 35 33 32 36 36 36 37 37 38 38 47 44 40 36 36 34 32 31
36 38 33 34 32 32 29 30 31 33 32 35 34 32 31 35 38 40 41 40 37 37 35 36 32 30 26 32 31 27 33 34 36 38 39 32 41 41 37 38 37 35 35 32 29
MSLP
1018.01 1018.29 1018.62 1018.96 1019.32 1019.59 1019.82 1020.11 1020.27 1020.37 1020.59 1020.70 1020.69 1020.63 1020.55 1020.48 1020.24 1020.08 1019.91 1019.48 1019.32 1019.17 1018.96 1018.82 1018.79 1018.91 1018.92 1019.59 1019.77 1020.33 1021.32 1021.85 1021.37 1021.10 1020.58 1020.26 1020.13 1020.01 1019.97 1019.91 1019.77 1019.86 1019.91 1019.96 1019.99
1017.77 1017.96 1018.39 1018.67 1019.03 1019.36 1019.67 1019.97 1020.11 1020.36 1020.49 1020.68 1020.67 1020.68 1020.57 1020.56 1020.49 1020.17 1019.56 1019.37 1019.35 1019.25 1019.30 1019.39 1019.51 1019.48 1019.81 1020.17 1020.30 1020.68 1021.76 1021.55 1021.11 1020.90 1020.75 1020.54 1020.41 1020.34 1020.29 1020.18 1019.98 1020.03 1019.92 1019.91 1020.04
1017.40 1017.84 1018.29 1018.56 1018.90 1019.11 1019.42 1019.75 1019.96 1020.09 1020.42 1020.60 1020.61 1020.65 1020.65 1020.60 1020.54 1019.76 1019.50 1019.21 1019.14 1019.21 1019.30 1019.41 1019.54 1019.75 1020.32 1020.40 1020.72 1021.07 1021.44 1021.38 1021.09 1020.94 1020.80 1020.74 1020.63 1020.48 1020.43 1020.30 1020.05 1020.16 1020.15 1020.15 1020.12
1017.23 1017.64 1017.84 1018.26 1018.78 1018.95 1019.21 1019.64 1019.72 1019.85 1020.35 1020.52 1020.57 1020.57 1020.66 1020.69 1020.50 1019.54 1019.33 1018.89 1018.78 1019.11 1019.40 1019.57 1019.80 1020.19 1020.66 1020.79 1020.98 1021.27 1021.42 1021.34 1021.15 1021.03 1021.07 1021.00 1020.92 1020.67 1020.43 1020.12 1019.88 1020.20 1020.31 1020.26 1020.19
1016.78 1017.30 1017.64 1018.14 1018.65 1018.68 1019.01 1019.50 1019.43 1019.74 1020.25 1020.36 1020.50 1020.56 1020.83 1020.85 1020.14 1019.41 1019.29 1019.12 1019.18 1019.37 1019.51 1019.75 1020.10 1020.36 1020.75 1020.92 1021.19 1021.42 1021.63 1021.55 1021.30 1021.28 1021.31 1021.24 1021.14 1020.86 1020.59 1020.12 1020.09 1020.28 1020.24 1020.29 1020.31
1016.40 1016.93 1017.35 1017.85 1018.39 1018.55 1018.76 1019.08 1019.42 1019.70 1019.94 1020.27 1020.48 1020.62 1021.06 1021.03 1019.78 1019.66 1019.41 1019.18 1019.43 1019.62 1019.75 1019.79 1020.07 1020.26 1020.82 1021.19 1021.39 1021.70 1021.82 1021.89 1021.49 1021.49 1021.50 1021.55 1021.33 1020.97 1020.50 1020.47 1020.54 1020.57 1020.35 1020.23 1020.20
1015.96 1016.51 1017.13 1017.73 1018.14 1018.34 1018.65 1018.83 1019.43 1019.68 1019.89 1020.08 1020.41 1020.89 1021.01 1020.35 1019.89 1019.72 1019.49 1019.62 1019.54 1019.65 1019.94 1020.00 1020.04 1020.32 1020.82 1021.38 1021.63 1021.99 1022.29 1022.14 1021.71 1021.73 1021.54 1021.47 1021.68 1020.90 1020.55 1020.88 1020.92 1020.74 1020.38 1019.92 1019.39
1015.64 1016.04 1016.84 1017.38 1017.85 1018.15 1018.60 1019.02 1019.43 1019.58 1019.75 1020.13 1020.49 1020.96 1020.78 1019.82 1019.79 1019.61 1019.63 1019.61 1019.56 1019.75 1019.87 1020.10 1020.20 1020.61 1020.93 1021.53 1022.06 1022.45 1022.75 1022.73 1021.98 1021.83 1021.52 1021.58 1021.59 1021.03 1021.02 1021.17 1021.17 1020.72 1020.27 1019.81 1019.08
1015.24 1015.57 1016.53 1017.01 1017.56 1018.08 1018.47 1018.80 1019.31 1019.31 1019.83 1020.36 1020.79 1020.72 1020.47 1019.69 1019.80 1019.33 1019.52 1019.69 1019.86 1019.98 1020.15 1020.34 1020.59 1021.01 1021.37 1022.00 1022.76 1022.96 1023.14 1023.16 1022.62 1021.97 1021.83 1021.86 1021.93 1021.26 1021.14 1021.35 1021.18 1020.67 1020.12 1019.44 1018.90
1014.77 1015.23 1016.06 1016.58 1017.34 1017.92 1018.37 1018.97 1019.46 1019.74 1020.42 1020.69 1020.91 1021.12 1020.55 1019.97 1019.43 1019.31 1019.34 1019.72 1019.91 1020.24 1020.56 1020.78 1021.25 1021.60 1021.90 1022.27 1022.55 1022.80 1023.15 1023.04 1022.98 1022.40 1022.09 1022.13 1022.07 1021.78 1021.35 1021.41 1021.04 1020.36 1019.49 1018.83 1018.46
1014.18 1014.70 1015.58 1016.01 1017.16 1017.74 1018.55 1019.25 1020.31 1020.76 1020.49 1020.04 1020.26 1019.73 1019.90 1019.66 1019.40 1019.19 1019.36 1020.00 1020.16 1020.31 1020.83 1021.12 1021.57 1021.69 1022.02 1022.17 1022.36 1022.73 1022.93 1022.97 1022.91 1022.60 1022.75 1022.17 1021.70 1021.75 1021.06 1020.68 1020.36 1019.80 1018.90 1018.06 1017.91
1013.91 1014.60 1015.03 1015.81 1016.88 1017.53 1018.29 1018.79 1018.92 1018.73 1019.75 1019.78 1020.08 1020.17 1019.95 1019.94 1019.56 1019.59 1019.63 1020.32 1020.49 1020.75 1021.04 1021.60 1021.27 1021.75 1022.20 1022.55 1022.71 1022.93 1023.12 1023.11 1022.95 1022.86 1023.11 1022.40 1021.40 1020.96 1020.09 1019.36 1019.03 1018.59 1018.29 1018.03 1017.93
1013.62 1014.28 1014.74 1015.42 1016.65 1017.61 1018.03 1018.39 1018.42 1018.44 1019.22 1019.49 1019.65 1019.79 1019.63 1019.70 1019.70 1019.78 1019.93 1020.13 1020.57 1021.12 1021.06 1021.11 1021.26 1021.10 1022.15 1022.64 1022.86 1022.98 1023.20 1023.37 1023.54 1023.43 1023.18 1022.83 1020.97 1019.89 1019.18 1018.74 1018.38 1018.11 1018.15 1018.42 1018.72
1013.12 1013.81 1014.45 1015.31 1016.96 1017.20 1018.01 1018.17 1018.44 1018.58 1019.64 1019.50 1019.43 1018.57 1019.22 1019.73 1020.07 1019.67 1019.63 1020.07 1020.66 1020.86 1021.41 1021.56 1021.55 1021.43 1022.12 1022.56 1022.64 1022.91 1022.93 1023.28 1023.74 1024.18 1023.97 1023.67 1022.06 1020.23 1019.36 1018.88 1018.37 1018.06 1018.82 1019.07 1019.30
1012.59 1013.36 1014.05 1014.80 1015.92 1016.75 1017.41 1018.00 1018.31 1018.71 1019.70 1018.59 1018.92 1018.18 1018.29 1019.26 1019.54 1019.84 1019.74 1019.91 1020.45 1021.09 1021.66 1021.46 1021.67 1021.56 1022.01 1021.94 1022.31 1022.69 1022.77 1023.31 1023.96 1024.32 1024.43 1024.04 1024.00 1020.16 1019.54 1019.04 1018.64 1018.94 1019.59 1020.00 1020.29
1012.00 1012.97 1013.76 1015.10 1015.69 1016.25 1016.91 1017.80 1018.84 1020.30 1019.38 1018.96 1018.71 1018.43 1018.88 1019.06 1019.53 1019.88 1019.95 1020.07 1020.57 1021.19 1021.44 1021.68 1021.62 1021.63 1021.68 1021.95 1022.14 1022.66 1023.10 1023.73 1024.21 1024.67 1023.98 1023.54 1023.60 1020.04 1019.66 1018.83 1018.96 1019.60 1020.43 1021.00 1021.19
1011.81 1012.54 1013.48 1014.43 1015.49 1015.96 1016.46 1018.30 1019.73 1019.61 1019.09 1019.12 1018.69 1018.53 1018.63 1018.78 1019.51 1019.72 1020.06 1020.31 1020.36 1021.20 1021.40 1021.82 1021.72 1021.71 1021.69 1022.22 1022.44 1022.44 1023.08 1023.97 1024.65 1024.76 1023.46 1022.72 1022.86 1019.61 1019.18 1018.55 1019.00 1019.68 1020.96 1021.63 1021.96
1011.95 1012.72 1013.23 1013.96 1014.89 1015.75 1016.50 1018.42 1018.11 1017.74 1018.74 1018.62 1018.47 1018.73 1018.64 1018.81 1019.13 1019.47 1019.87 1020.07 1020.30 1020.42 1021.05 1021.46 1021.70 1021.43 1021.30 1021.22 1021.66 1021.84 1022.30 1022.84 1023.63 1024.23 1023.67 1023.14 1021.58 1018.97 1018.10 1018.80 1019.07 1019.62 1020.95 1022.10 1022.74
1012.18 1013.05 1013.31 1014.01 1014.41 1015.03 1016.54 1017.37 1017.17 1017.15 1017.65 1018.33 1018.84 1019.00 1019.06 1018.97 1018.86 1019.44 1019.50 1019.54 1019.60 1019.93 1020.37 1020.99 1021.15 1020.84 1020.87 1020.72 1020.89 1021.89 1021.86 1022.34 1023.54 1024.44 1024.21 1022.41 1020.21 1018.72 1018.26 1019.10 1019.88 1020.93 1022.16 1023.09 1023.60
1012.01 1012.95 1013.30 1013.72 1014.10 1015.21 1016.31 1016.52 1016.85 1016.63 1016.71 1017.06 1017.93 1018.28 1018.54 1018.78 1019.11 1019.30 1019.50 1018.61 1019.02 1019.02 1019.48 1020.36 1020.99 1021.17 1020.91 1020.80 1020.73 1020.61 1021.12 1022.41 1023.26 1023.65 1023.50 1021.71 1020.46 1018.91 1018.73 1019.29 1020.42 1021.40 1022.27 1023.27 1023.91
1011.97 1012.71 1013.09 1013.39 1014.36 1015.01 1015.03 1015.84 1016.32 1016.32 1016.09 1016.49 1017.06 1017.85 1018.15 1018.41 1018.67 1018.98 1018.84 1018.62 1018.23 1018.51 1019.24 1019.96 1020.93 1021.54 1021.35 1020.54 1020.21 1020.72 1020.97 1021.47 1021.90 1022.41 1022.36 1021.54 1019.23 1017.77 1017.98 1018.66 1019.93 1021.23 1022.16 1022.96 1023.90
1011.60 1012.66 1012.82 1013.21 1013.83 1014.05 1014.71 1015.25 1015.54 1016.05 1016.24 1015.93 1016.17 1016.96 1017.54 1018.01 1018.46 1018.92 1018.62 1018.30 1017.98 1018.34 1018.99 1019.32 1020.09 1020.40 1020.37 1019.98 1019.83 1019.92 1019.95 1020.69 1021.00 1021.53 1021.09 1020.24 1017.15 1017.40 1017.90 1018.35 1019.40 1020.93 1022.17 1023.20 1024.10
1011.71 1012.70 1012.85 1012.60 1013.48 1014.40 1015.18 1015.35 1015.72 1015.94 1015.82 1015.98 1016.38 1016.45 1016.99 1017.65 1018.36 1018.38 1018.36 1018.23 1018.06 1018.52 1018.73 1019.29 1019.62 1020.10 1020.17 1020.56 1020.23 1019.76 1019.75 1019.89 1020.07 1020.18 1018.51 1019.95 1016.61 1017.42 1018.02 1018.83 1019.72 1020.93 1022.31 1023.37 1024.28
1012.15 1012.83 1012.69 1012.30 1013.12 1014.11 1014.75 1015.29 1015.78 1015.64 1015.88 1015.97 1016.45 1016.54 1017.07 1017.67 1017.73 1018.37 1018.52 1018.12 1018.13 1018.38 1018.44 1018.65 1019.10 1019.07 1018.52 1018.77 1018.78 1019.22 1019.14 1019.01 1019.09 1018.87 1017.81 1017.18 1016.90 1017.25 1018.16 1019.05 1020.07 1021.04 1022.22 1023.18 1024.04
1011.66 1011.81 1011.50 1012.14 1013.12 1014.02 1014.38 1014.56 1015.49 1015.96 1016.10 1016.15 1016.75 1016.54 1017.00 1017.93 1018.15 1018.27 1018.33 1018.42 1018.40 1018.33 1018.40 1018.69 1018.75 1018.91 1018.33 1018.56 1018.94 1018.67 1018.31 1018.01 1017.97 1017.06 1017.45 1014.88 1016.23 1015.63 1016.93 1018.13 1019.18 1020.45 1021.96 1023.13 1024.05
1011.30 1011.80 1012.56 1012.04 1012.55 1014.15 1014.40 1014.57 1014.93 1015.56 1016.00 1016.47 1016.57 1016.92 1016.98 1017.36 1017.28 1017.98 1018.20 1018.27 1018.34 1018.61 1018.62 1018.45 1017.93 1018.72 1017.92 1018.30 1018.86 1018.33 1017.20 1016.98 1016.95 1016.27 1015.94 1015.51 1014.36 1015.25 1015.83 1017.42 1018.98 1019.97 1021.28 1022.52 1023.56
1011.14 1011.11 1011.76 1011.70 1012.32 1013.18 1013.63 1014.29 1014.79 1015.03 1016.06 1015.76 1016.21 1016.73 1016.92 1016.49 1016.78 1016.92 1017.17 1017.65 1017.92 1018.14 1018.35 1018.47 1018.85 1018.55 1017.54 1018.25 1018.33 1017.45 1015.09 1016.06 1015.69 1015.34 1015.20 1014.77 1012.99 1015.17 1016.17 1017.18 1018.14 1019.33 1020.61 1022.14 1023.64
Wind_Speed
13 12 12 11 10 9 8 7 5 3 1 1 2 3 4 6 7 3 3 1 1 6 4 4 7 7 4 3 3 3 5 1 3 4 2 3 3 3 3 2 2 1 0 3 5
13 11 9 10 10 10 9 7 7 5 3 1 1 3 4 5 1 3 6 7 5 4 3 4 4 5 3 2 3 5 4 7 2 3 2 2 3 2 2 6 1 1 1 4 1
13 11 10 9 8 9 10 9 7 6 4 2 0 2 4 3 2 4 5 9 6 6 2 2 2 3 3 1 3 2 5 3 2 2 1 2 3 1 1 3 3 3 4 4 2
13 12 10 10 9 9 8 10 9 7 5 4 2 1 2 2 5 1 6 8 5 7 3 3 3 3 3 3 2 4 1 4 2 2 4 2 1 5 5 7 4 3 4 4 5
14 12 11 11 11 10 9 9 9 9 8 6 4 2 0 0 6 3 5 5 5 4 6 4 3 4 5 3 2 3 0 0 4 5 4 1 4 6 4 8 7 7 6 7 7
15 14 12 10 11 11 11 8 7 9 8 8 5 4 3 4 1 5 5 2 4 2 2 3 5 4 5 3 3 3 1 3 5 3 4 2 3 1 2 2 7 7 9 7 7
15 13 12 12 12 11 9 8 7 6 5 7 8 3 1 10 2 4 5 1 1 1 3 1 4 4 5 3 2 3 2 4 4 1 4 5 4 8 4 4 7 7 8 10 10
15 13 14 13 12 12 10 9 8 7 4 6 9 3 6 2 3 4 1 2 1 2 3 2 2 4 3 4 4 4 3 1 4 1 1 6 6 8 4 6 8 9 10 8 12
15 13 13 13 13 12 10 8 6 6 4 9 3 3 6 1 3 5 5 2 3 3 4 3 3 3 3 5 2 1 2 2 8 1 2 4 3 4 4 5 9 11 12 12 10
16 15 13 14 13 12 11 10 8 8 7 4 2 2 4 4 2 1 3 4 2 5 4 2 3 3 3 5 6 6 5 4 4 4 3 6 7 11 10 4 12 12 13 13 12
18 17 15 15 14 14 13 7 5 1 2 6 4 2 1 2 1 2 3 4 1 4 6 2 4 10 11 5 3 5 3 5 2 5 3 7 10 9 12 7 9 13 15 17 12
16 16 19 17 16 17 7 5 6 6 4 9 1 5 1 2 2 1 4 6 4 3 7 4 10 7 7 4 5 5 6 4 3 1 2 7 16 17 19 18 15 16 16 14 8
19 17 18 19 16 11 8 6 3 3 3 2 9 4 3 5 3 6 7 5 4 7 9 6 4 7 8 4 6 3 4 2 6 4 4 7 10 3 2 5 6 9 12 8 8
20 19 19 19 11 9 6 5 3 2 3 5 7 9 6 7 5 4 6 5 2 11 7 9 8 5 4 7 6 6 6 3 3 2 7 3 10 5 6 7 5 10 6 5 5
21 20 20 22 11 10 8 6 5 5 1 3 4 3 8 9 7 5 2 4 7 6 6 5 6 9 5 5 7 3 5 6 4 3 2 5 5 5 4 6 10 5 5 6 8
21 21 21 7 4 9 13 7 6 4 11 2 4 9 11 11 3 4 3 5 3 5 1 2 0 5 7 4 7 8 5 3 3 2 9 10 8 4 5 8 4 4 4 4 6
20 21 17 8 7 13 15 7 5 6 3 6 7 9 15 10 10 7 9 8 8 7 9 3 4 2 3 5 2 5 7 1 3 5 7 2 9 14 6 9 6 5 6 5 5
15 12 12 5 13 16 10 6 7 6 7 2 7 10 13 8 15 7 11 10 9 3 3 9 3 12 8 9 7 10 9 5 7 5 3 3 9 8 8 2 5 4 8 7 8
15 4 6 7 15 11 10 12 13 7 11 9 10 13 5 6 6 12 10 13 12 7 7 5 5 1 3 4 11 5 10 4 2 2 0 6 8 8 6 4 5 8 8 6 6
4 6 6 11 15 10 8 12 7 6 7 8 7 7 9 15 7 15 9 5 8 15 3 2 2 1 2 1 2 6 8 5 4 5 5 5 7 11 5 5 6 8 8 6 5
5 6 6 13 12 7 10 7 5 5 5 7 7 6 6 10 10 9 6 3 8 11 14 4 2 3 2 8 13 5 6 4 3 5 5 3 9 7 10 7 12 9 10 10 7
4 4 7 12 9 4 10 8 6 6 3 3 5 5 8 8 6 7 10 6 6 8 14 14 5 8 12 4 7 11 9 11 7 6 7 2 15 1 6 5 10 12 11 7 7
3 3 4 10 10 6 4 5 5 5 5 3 4 3 3 7 4 6 6 6 7 11 10 9 5 10 6 2 1 9 8 12 12 1 21 6 13 1 2 4 5 12 9 8 8
4 5 4 7 4 8 6 6 5 3 4 4 5 4 5 3 1 6 5 5 8 7 11 8 6 9 14 4 5 8 10 17 19 13 15 20 17 7 5 7 7 9 10 10 8
4 2 1 7 12 8 2 11 13 5 3 3 2 5 7 4 4 5 4 2 3 6 7 8 16 11 18 12 2 5 10 21 21 26 18 25 21 20 11 15 16 13 11 10 9
5 4 3 4 19 15 14 5 17 6 8 4 6 8 6 8 8 7 5 5 7 3 4 3 19 7 20 14 10 18 23 16 21 25 26 25 29 12 5 6 12 16 16 14 11
1 3 5 15 16 15 6 8 8 11 2 5 7 6 6 12 7 8 7 3 2 7 6 5 2 5 20 4 8 17 23 22 21 19 18 23 30 7 7 14 17 18 17 13 11
Wind_Direction
203 202 204 199 198 199 204 202 195 180 213 277 1 10 349 339 321 9 261 228 46 334 359 336 23 349 35 63 54 115 67 135 218 163 193 352 68 355 311 328 23 17 111 295 314
198 177 186 203 200 199 200 200 187 193 189 250 355 345 343 351 340 263 270 315 296 331 44 50 18 1 44 26 28 83 104 208 215 185 163 17 63 288 13 343 25 108 300 333 111
187 184 186 191 198 202 203 196 194 189 192 185 244 321 339 344 7 237 327 299 252 209 153 137 106 80 74 1 15 125 157 200 258 251 157 128 342 292 96 321 237 290 301 306 297
189 191 185 191 201 198 205 201 193 186 194 187 204 250 337 319 218 137 350 13 185 164 149 117 70 80 103 108 42 99 139 162 273 4 355 336 283 301 184 230 249 276 282 282 292
190 194 189 197 205 197 195 204 195 193 190 187 186 174 355 58 251 347 338 52 72 130 152 133 122 133 140 107 74 105 240 102 296 303 263 313 256 245 229 262 306 309 297 290 296
192 192 195 201 204 203 190 181 191 199 196 179 175 126 102 226 144 3 334 45 83 86 122 115 164 145 104 107 124 145 30 310 283 297 285 243 266 285 279 28 320 328 303 294 270
196 191 194 194 201 198 182 169 179 178 200 185 156 109 111 238 116 336 23 43 354 86 133 180 121 99 131 124 122 99 7 316 258 198 251 156 278 245 252 5 317 317 306 303 282
195 190 197 192 192 182 173 175 182 170 159 189 146 104 236 252 318 253 188 14 68 65 90 137 118 97 114 114 42 92 50 19 291 337 267 139 269 270 62 38 314 309 304 290 290
179 174 190 182 174 170 166 159 160 147 135 147 127 135 254 34 211 275 142 113 127 81 46 95 108 150 87 109 65 262 203 196 315 280 236 170 250 277 301 20 314 305 300 293 289
181 170 181 169 172 168 149 132 103 85 85 76 26 80 245 237 209 124 135 155 144 118 75 105 68 125 117 150 201 191 188 185 224 303 345 280 246 266 280 271 275 282 279 281 278
178 170 179 160 169 158 121 104 76 47 195 187 178 210 27 289 137 91 142 141 154 140 154 198 178 210 208 209 204 104 151 183 226 266 298 256 275 268 270 263 259 263 267 272 273
172 183 169 170 173 151 124 153 189 171 174 227 189 286 245 297 85 120 130 145 193 171 124 151 225 207 194 195 211 253 251 249 282 341 274 298 292 280 257 258 248 256 271 271 284
176 179 170 168 162 141 164 164 151 131 109 228 200 196 219 124 256 210 149 132 162 211 196 195 169 180 171 183 190 208 202 232 246 331 289 325 285 240 282 248 246 248 254 294 291
174 177 174 162 145 148 163 173 172 188 47 238 197 225 171 138 246 181 180 141 217 197 191 237 225 128 151 192 156 206 196 181 111 359 279 36 291 281 247 260 268 280 342 317 341
176 178 175 152 133 165 150 136 145 49 105 223 160 343 155 165 142 202 237 88 167 176 161 217 180 175 176 191 167 238 146 153 167 206 315 198 263 276 151 270 289 1 33 41 58
173 179 170 119 105 150 133 113 64 94 229 181 126 170 159 182 145 103 127 52 142 155 289 206 273 160 191 169 164 154 98 85 98 174 254 209 184 228 196 192 237 134 90 87 80
174 177 165 141 163 147 132 117 158 196 287 192 173 171 181 169 176 161 170 178 166 174 220 145 195 184 159 104 46 171 135 224 237 205 238 313 201 247 260 266 220 225 153 130 86
169 185 166 140 143 150 142 160 212 183 195 238 162 150 184 151 201 174 165 198 229 132 137 193 276 172 184 178 173 186 184 181 206 201 257 77 230 248 219 222 214 184 136 102 81
177 167 158 158 155 147 155 196 206 172 155 145 135 169 181 205 164 186 198 212 199 179 178 167 240 68 233 155 155 169 209 159 27 57 359 229 278 282 250 106 97 107 99 89 83
161 166 186 165 153 162 184 201 204 175 137 130 146 171 169 181 160 186 176 222 213 197 208 149 315 275 225 132 240 163 142 155 189 182 246 271 267 234 259 182 153 149 143 141 136
172 158 174 159 152 189 190 203 189 212 147 143 162 149 173 170 166 188 196 311 217 192 194 135 199 235 146 205 189 170 198 225 152 145 182 256 254 217 228 190 185 175 168 162 142
159 154 170 155 188 160 202 161 152 159 202 133 111 116 157 156 151 181 202 199 204 154 192 197 211 225 214 231 188 217 209 191 196 187 234 197 259 3 239 213 165 174 166 148 132
128 101 224 159 184 199 134 132 172 151 162 131 107 137 172 146 147 187 175 220 162 160 180 173 228 246 251 287 261 220 205 216 226 105 235 211 257 317 81 127 158 158 157 144 144
127 149 186 174 205 183 157 162 136 22 120 104 116 97 105 135 337 175 214 209 182 187 211 199 209 213 235 206 150 203 201 208 210 230 249 236 263 229 203 191 186 167 157 162 160
161 177 85 182 184 183 117 172 178 141 60 121 40 158 149 112 103 164 157 154 143 213 227 219 245 235 254 259 239 234 215 217 218 231 225 251 241 253 218 204 197 176 160 158 155
139 145 147 214 177 179 175 176 179 137 141 217 147 169 160 167 170 175 157 187 207 170 206 222 256 258 260 252 249 255 245 238 226 233 238 253 257 258 269 158 169 182 173 175 170
264 110 76 175 162 171 159 157 168 135 247 166 155 125 186 212 181 199 196 199 230 212 204 197 248 200 255 268 247 248 244 233 233 235 231 238 246 192 205 194 191 186 181 168 147